[[{"header":{"parameterUnit":"m.s-1","parameterCategory":1,"la1":30.2991,"la2":30.254,"lo1":-89.0895,"lo2":-89.0444,"dy":0.0017,"dx":0.0017,"nx":28,"ny":28,"refTime":"2025-08-28T09:00:00:Z","depth":0,"parameterNumber":2,"parameterNumberName":"U-component_of_WINDS"},"data":[0,0,0,0,0,0,0,0,0,0,0,0,0,0,0,0,0,0,0,0,0,0,0,0,0,0,0,0,0,0,0,0,0,0,0,0,0,0,0,0,0,0,0,0,0,0,0,0,0,0,0,0,0,0,0,0,0,0,-2.1748,-2.1748,0,-2.18,-2.1801,-2.1801,-2.1803,-2.1802,-2.1801,-2.1801,-2.1856,-2.1858,-2.186,0,0,0,0,0,0,0,0,0,0,0,0,0,-2.1651,-2.1652,-2.1748,-2.1749,-2.1749,-2.18,-2.1801,-2.1801,-2.1803,-2.1802,-2.1801,-2.1801,-2.1855,-2.1857,-2.186,0,0,0,0,0,0,0,0,0,0,0,0,0,-2.1697,-2.1653,-2.1748,-2.1756,-2.1757,-2.18,-2.1801,-2.1801,-2.1803,-2.1802,-2.1801,-2.18,-2.1854,-2.1857,-2.186,-2.1898,0,0,-2.1869,-2.1871,0,0,0,0,0,0,0,0,-2.1694,-2.17,-2.1754,-2.1756,-2.1757,-2.1794,-2.1786,-2.1834,-2.1803,-2.1786,-2.1801,-2.18,-2.1836,-2.184,-2.1852,-2.1901,-2.1903,-2.187,-2.1872,-2.1873,-2.1874,0,0,0,0,0,0,0,-2.1691,-2.1698,-2.1769,-2.1755,-2.1757,-2.1757,-2.1763,-2.1795,-2.1816,-2.1787,-2.1787,-2.1793,-2.1836,-2.1849,-2.1854,-2.1904,-2.187,-2.1872,-2.1874,-2.1876,-2.1985,-2.1986,0,0,0,0,0,0,-2.1686,-2.1695,-2.1767,-2.177,-2.1723,-2.176,-2.1766,-2.1783,-2.1815,-2.1819,-2.1794,-2.1793,-2.1845,-2.185,-2.1856,-2.1901,-2.1873,-2.1876,-2.1878,-2.1984,-2.1985,-2.1986,0,0,0,0,0,0,-2.1684,-2.1692,-2.1765,-2.1733,-2.1742,-2.1763,-2.1782,-2.1785,-2.1797,-2.1821,-2.1824,-2.1804,-2.1844,-2.1851,-2.1887,-2.1903,-2.1877,-2.188,-2.1983,-2.1984,-2.1986,-2.1994,0,0,0,0,0,0,-2.1681,-2.1692,-2.1706,-2.1733,-2.1744,-2.1795,-2.1783,-2.1786,-2.1802,-2.1802,-2.183,-2.1834,-2.1844,-2.1883,-2.189,-2.1907,-2.1882,-2.1981,-2.1984,-2.1985,-2.1992,-2.1995,-2.1998,0,0,0,0,0,-2.1678,-2.1707,-2.1707,-2.1716,-2.1762,-2.1796,-2.1802,-2.1813,-2.1804,-2.1819,-2.1833,-2.1833,-2.19,-2.1886,-2.1895,-2.1913,-2.198,-2.1983,-2.1985,-2.1991,-2.1995,-2.1998,0,0,0,0,0,0,-2.1682,-2.1711,-2.1711,-2.175,-2.177,-2.1797,-2.1816,-2.1817,-2.1841,-2.1839,-2.1851,-2.1858,-2.1893,-2.1907,-2.1891,-2.1951,-2.1939,-2.1944,-2.1941,-2.1945,-2.1948,-2.1943,-2.1885,0,0,0,0,0,-2.1687,-2.1712,-2.1736,-2.1768,-2.1778,-2.1795,-2.181,-2.1816,-2.1838,-2.1847,-2.1865,-2.1887,-2.1913,-2.1929,-2.1955,-2.1994,-2.2,-2.2011,-2.2014,-2.2016,-2.202,-2.204,-2.2045,-2.1994,-2.1994,-2.1994,0,0,-2.1699,-2.1718,-2.1733,-2.1769,-2.1786,-2.1812,-2.1803,-2.183,-2.1849,-2.1852,-2.1886,-2.19,-2.1925,-2.1963,-2.198,-2.1975,-2.2035,-2.2019,-2.2021,-2.2023,-2.2043,-2.2048,-2.2052,-2.1996,-2.1996,-2.1995,0,0,-2.1733,-2.175,-2.1778,-2.1794,-2.182,-2.183,-2.1837,-2.1863,-2.1872,-2.1906,-2.1909,-2.1932,-2.1976,-2.1994,-2.2008,-2.2048,-2.2048,-2.2056,-2.2072,-2.2092,-2.2096,-2.2099,-2.2113,-2.2117,-2.2059,-2.2059,-2.2059,0,-2.1744,-2.1783,-2.1792,-2.1819,-2.1835,-2.1838,-2.1866,-2.1882,-2.1914,-2.1925,-2.1919,-2.1974,-2.1992,-2.2033,-2.2042,-2.2054,-2.2062,-2.2052,-2.2094,-2.2098,-2.2102,-2.2114,-2.2119,-2.206,-2.206,-2.206,-2.206,0,-2.1795,-2.1821,-2.1841,-2.1871,-2.1889,-2.1916,-2.193,-2.1947,-2.1952,-2.1963,-2.1998,-2.2019,-2.2048,-2.2058,-2.2063,-2.21,-2.2096,-2.2092,-2.208,-2.2107,-2.2119,-2.2124,-2.2061,-2.2061,-2.206,-2.206,0,0,-2.1834,-2.1868,-2.1875,-2.1888,-2.1915,-2.1936,-2.1963,-2.1991,-2.2005,-2.2027,-2.205,-2.2088,-2.2084,-2.21,-2.2107,-2.2125,-2.2154,-2.2119,-2.212,-2.2124,-2.2195,-2.2197,-2.2202,-2.2154,-2.2155,-2.2156,-2.2192,0,-2.187,-2.1918,-2.1927,-2.1969,-2.1993,-2.1996,-2.202,-2.2039,-2.205,-2.2073,-2.2085,-2.2111,-2.2105,-2.2115,-2.2132,-2.2147,-2.2168,-2.2144,-2.2176,-2.2177,-2.2169,-2.2209,-2.2211,-2.2244,-2.2197,-2.2198,-2.2199,0,-2.1919,-2.1941,-2.1985,-2.2008,-2.2019,-2.204,-2.2065,-2.2086,-2.2108,-2.2115,-2.2133,-2.2138,-2.2166,-2.2154,-2.2193,-2.2177,-2.219,-2.2199,-2.22,-2.2203,-2.2189,-2.2212,-2.2255,-2.226,-2.2206,-2.2206,-2.2205,0,-2.1942,-2.1983,-2.2014,-2.2025,-2.2053,-2.2068,-2.208,-2.2101,-2.2117,-2.2139,-2.2149,-2.2175,-2.2189,-2.2209,-2.222,-2.221,-2.2258,-2.2247,-2.2265,-2.2264,-2.2274,-2.2273,-2.2319,-2.2284,-2.2284,-2.2284,-2.2284,0,-2.1981,-2.2008,-2.2024,-2.2044,-2.2073,-2.2083,-2.2113,-2.2125,-2.2143,-2.2165,-2.2169,-2.219,-2.2204,-2.2226,-2.2235,-2.2265,-2.2272,-2.2278,-2.228,-2.2278,-2.2277,-2.2286,-2.2284,-2.2285,-2.2285,-2.2285,-2.2284,0,-2.2011,-2.2024,-2.2058,-2.2081,-2.2087,-2.2108,-2.2128,-2.2147,-2.2158,-2.2185,-2.2192,-2.221,-2.2236,-2.2249,-2.2282,-2.2288,-2.2322,-2.2323,-2.2315,-2.2315,-2.2332,-2.233,-2.2385,-2.2393,-2.2353,-2.2353,-2.2354,0,-2.2035,-2.2056,-2.2081,-2.2095,-2.2107,-2.2131,-2.2146,-2.2157,-2.2173,-2.2199,-2.2214,-2.2241,-2.2262,-2.2304,-2.232,-2.2345,-2.2346,-2.2364,-2.235,-2.2346,-2.2345,-2.2344,-2.2345,-2.2366,-2.2366,-2.2367,-2.2367,0,-2.2077,-2.2081,-2.2103,-2.2127,-2.2145,-2.2164,-2.2184,-2.2195,-2.2209,-2.2227,-2.2253,-2.227,-2.2303,-2.2329,-2.2355,-2.2368,-2.237,-2.2371,-2.2376,-2.2374,-2.2367,-2.237,-2.2321,-2.237,-2.237,-2.2369,-2.2369,-2.2369,-2.2104,-2.2122,-2.2142,-2.2166,-2.2181,-2.2198,-2.2217,-2.2229,-2.2251,-2.2278,-2.2283,-2.2311,-2.2332,-2.2367,-2.2381,-2.2402,-2.2399,-2.2407,-2.2408,-2.241,-2.241,-2.2364,-2.2407,-2.2407,-2.2407,-2.2407,-2.2407,0,-2.2145,-2.2157,-2.2179,-2.2205,-2.2224,-2.2223,-2.2244,-2.226,-2.2284,-2.2303,-2.2323,-2.2353,-2.2378,-2.2395,-2.242,-2.2435,-2.2436,-2.2441,-2.244,-2.2442,-2.2413,-2.2405,-2.2439,-2.2439,-2.2439,-2.2439,-2.2439,-2.2439,-2.2168,-2.2198,-2.2205,-2.2241,-2.2254,-2.2281,-2.2292,-2.2308,-2.2323,-2.2356,-2.2376,-2.2387,-2.2405,-2.2431,-2.2454,-2.2458,-2.2467,-2.2472,-2.2476,-2.2448,-2.2445,-2.2441,-2.2434,-2.2474,-2.2474,-2.2504,-2.2504,-2.2504]},{"header":{"parameterUnit":"m.s-1","parameterCategory":1,"la1":30.2991,"la2":30.254,"lo1":-89.0895,"lo2":-89.0444,"dy":0.0017,"dx":0.0017,"nx":28,"ny":28,"refTime":"2025-08-28T09:00:00:Z","depth":0,"parameterNumber":3,"parameterNumberName":"V-component_of_WINDS"},"data":[0,0,0,0,0,0,0,0,0,0,0,0,0,0,0,0,0,0,0,0,0,0,0,0,0,0,0,0,0,0,0,0,0,0,0,0,0,0,0,0,0,0,0,0,0,0,0,0,0,0,0,0,0,0,0,0,0,0,6.4681,6.4682,0,6.4728,6.4728,6.4729,6.4684,6.4682,6.468,6.4679,6.4721,6.4723,6.4726,0,0,0,0,0,0,0,0,0,0,0,0,0,6.4548,6.4551,6.4681,6.4682,6.4682,6.4727,6.4728,6.4729,6.4684,6.4682,6.468,6.4678,6.472,6.4723,6.4726,0,0,0,0,0,0,0,0,0,0,0,0,0,6.4601,6.4552,6.4681,6.4666,6.4665,6.4727,6.4728,6.4729,6.4684,6.4682,6.4679,6.4677,6.4719,6.4723,6.4727,6.4805,0,0,6.4739,6.4741,0,0,0,0,0,0,0,0,6.4598,6.4606,6.4667,6.4667,6.4666,6.4697,6.4696,6.4754,6.4685,6.4677,6.4678,6.4675,6.4715,6.4719,6.4733,6.4807,6.4809,6.474,6.4742,6.4744,6.4745,0,0,0,0,0,0,0,6.4595,6.4604,6.4699,6.4668,6.4667,6.4654,6.4659,6.4707,6.471,6.4677,6.4674,6.4681,6.4714,6.4729,6.4734,6.481,6.474,6.4743,6.4746,6.4747,6.4949,6.4952,0,0,0,0,0,0,6.4593,6.4601,6.4698,6.4701,6.4625,6.4659,6.4664,6.469,6.4709,6.471,6.4683,6.4678,6.4724,6.4729,6.4735,6.4828,6.4744,6.4748,6.475,6.4946,6.495,6.4953,0,0,0,0,0,0,6.4591,6.4603,6.4696,6.465,6.4661,6.4664,6.4693,6.4692,6.4708,6.4713,6.4713,6.4699,6.4722,6.4729,6.4788,6.4829,6.475,6.4753,6.4943,6.4947,6.4951,6.5014,0,0,0,0,0,0,6.4587,6.4602,6.4633,6.4651,6.4664,6.475,6.4696,6.4695,6.4716,6.471,6.4728,6.4729,6.472,6.4782,6.4792,6.4833,6.4757,6.4939,6.4945,6.495,6.5008,6.502,6.503,0,0,0,0,0,6.4583,6.4648,6.4635,6.4647,6.4703,6.4753,6.4759,6.475,6.4719,6.475,6.4753,6.4728,6.4823,6.4789,6.48,6.4842,6.4937,6.4943,6.4949,6.5003,6.5018,6.5029,0,0,0,0,0,0,6.4632,6.465,6.4636,6.4709,6.473,6.4745,6.4783,6.4765,6.4794,6.4787,6.4773,6.4777,6.4839,6.4846,6.4808,6.4918,6.4874,6.4883,6.4912,6.4925,6.4936,6.4932,6.476,0,0,0,0,0,6.4652,6.4693,6.4705,6.4769,6.478,6.478,6.4801,6.4792,6.4812,6.482,6.4828,6.4847,6.4881,6.4903,6.4935,6.5009,6.5012,6.5044,6.5054,6.5063,6.5071,6.511,6.5124,6.4974,6.4974,6.4974,0,0,6.4693,6.4708,6.4734,6.4779,6.4794,6.4835,6.4788,6.4833,6.4862,6.4826,6.4883,6.4889,6.4909,6.4976,6.5006,6.4984,6.5113,6.5071,6.5078,6.5081,6.5118,6.5132,6.5144,6.4978,6.4978,6.4977,0,0,6.4788,6.4804,6.4859,6.4875,6.4899,6.4898,6.4912,6.4929,6.4933,6.499,6.4964,6.4997,6.5056,6.5072,6.5087,6.5188,6.5166,6.5199,6.5254,6.5292,6.5304,6.5315,6.535,6.5363,6.5206,6.5206,6.5206,0,6.4835,6.4898,6.4888,6.4936,6.4955,6.4927,6.4981,6.4997,6.5029,6.5043,6.5018,6.5091,6.5103,6.5172,6.5197,6.5211,6.5224,6.5196,6.5304,6.5314,6.5323,6.5357,6.537,6.521,6.521,6.5209,6.5209,0,6.4954,6.4997,6.5038,6.5072,6.5096,6.5147,6.5143,6.5169,6.5158,6.5159,6.5217,6.523,6.5263,6.5279,6.5268,6.5347,6.5332,6.5306,6.5261,6.5342,6.5373,6.5385,6.5216,6.5214,6.5213,6.5212,0,0,6.5081,6.511,6.5125,6.514,6.5164,6.5196,6.5245,6.5279,6.5301,6.5324,6.5363,6.5414,6.5389,6.5407,6.5397,6.5431,6.5509,6.54,6.54,6.5419,6.5595,6.5615,6.563,6.5494,6.5497,6.5499,6.5593,0,6.5177,6.5263,6.5256,6.5336,6.5375,6.5349,6.539,6.5409,6.5412,6.5443,6.5445,6.5482,6.5447,6.5458,6.549,6.5493,6.5544,6.5486,6.5529,6.5531,6.5524,6.5646,6.5667,6.5756,6.5606,6.5608,6.5609,0,6.53,6.5329,6.5414,6.5432,6.5448,6.5486,6.5517,6.5548,6.5568,6.5567,6.5587,6.5572,6.5618,6.5573,6.5637,6.5597,6.5614,6.5618,6.5622,6.5625,6.5574,6.5652,6.5784,6.5797,6.5628,6.5627,6.5625,0,6.5383,6.5444,6.5502,6.5516,6.5539,6.5566,6.5576,6.5593,6.5614,6.564,6.5654,6.5684,6.5701,6.5724,6.5717,6.5685,6.5781,6.5736,6.5781,6.5781,6.5801,6.58,6.5938,6.5814,6.5814,6.5814,6.5813,0,6.549,6.5543,6.554,6.5576,6.5634,6.5625,6.5681,6.5688,6.5704,6.5739,6.5717,6.575,6.5739,6.5771,6.5765,6.5818,6.5826,6.5825,6.5823,6.5827,6.5827,6.5837,6.5831,6.5817,6.5816,6.5816,6.5815,0,6.5594,6.5594,6.5656,6.5673,6.5678,6.572,6.5733,6.5766,6.5767,6.5812,6.5822,6.5823,6.586,6.5855,6.5895,6.5891,6.5957,6.5947,6.5951,6.5948,6.5993,6.5989,6.6142,6.6161,6.6025,6.6027,6.6028,0,6.5662,6.5702,6.5724,6.5747,6.576,6.5797,6.5818,6.581,6.5833,6.5858,6.5888,6.5923,6.595,6.601,6.6013,6.6044,6.6034,6.6086,6.6038,6.6041,6.6034,6.6032,6.6035,6.6095,6.6096,6.6097,6.6098,0,6.5782,6.5781,6.5814,6.5847,6.5874,6.5899,6.5922,6.5942,6.5935,6.5962,6.6,6.6022,6.6063,6.6098,6.6127,6.6135,6.6115,6.6113,6.6125,6.6129,6.613,6.6129,6.5975,6.611,6.6109,6.6108,6.6107,6.6107,6.587,6.5904,6.5925,6.5962,6.5979,6.6,6.6032,6.6038,6.607,6.6104,6.6097,6.614,6.6157,6.6194,6.6205,6.6237,6.6218,6.6236,6.624,6.6244,6.6249,6.6125,6.6243,6.6242,6.6242,6.6242,6.6241,0,6.5989,6.6001,6.6035,6.6069,6.6098,6.6079,6.6103,6.6127,6.6166,6.6185,6.6213,6.6256,6.6289,6.6295,6.6327,6.6351,6.6343,6.6359,6.6357,6.6359,6.6265,6.6251,6.6365,6.6365,6.6365,6.6365,6.6365,6.6365,6.6054,6.6111,6.6112,6.6176,6.6187,6.623,6.6245,6.6264,6.6279,6.6329,6.6357,6.6362,6.6375,6.6407,6.6436,6.6437,6.6449,6.6469,6.6466,6.6378,6.6366,6.6354,6.6341,6.6472,6.6472,6.6558,6.6558,6.6559]}]]